sat.trackr.live / text

‹ back to catalog

STARLINK-35799

NORAD 66290 · 2025-247AB

PAYLOAD ACTIVE UNKNOWN

§ Identity

Operator
Country
US
Launch date
2025-10-31
Launch site
AFWTR
Launch vehicle
Mass (kg)
RCS (m²)

Purposes: comms

External: N2YO · Heavens-Above · Gunter

§ Orbital elements

Epoch: 2026-05-25T03:14:33.192096Z

Period
93.85 min
Inclination
53.1597°
Eccentricity
0.0001489
Mean motion
15.34411116 rev/d
Perigee alt
461.7 km
Apogee alt
463.7 km
Semi-major
6,840.8 km
B*
5.7625e-4
RAAN
195.2354°
Arg perigee
82.4236°
Mean anomaly
277.6936°
Rev number
3,280

§ Raw data

STARLINK-357991 66290U 25247AB  26145.13510639  .00019150  00000+0  57625-3 0  99922 66290  53.1597 195.2354 0001489  82.4236 277.6936 15.34411116 32801

JSON: /api/v1/satellites/66290 · /tle

For live sub-satellite position, see the globe view (requires WebGL).

§ Visibility from observer

Set your observer location to see the next 7 days of passes ≥ 10°. The values pass through the URL so the page stays shareable.

No JS? Fill the form by hand. The geolocation button needs JavaScript.